Regional Weather Roundup
Issued by NWS

Home | Current Version | Previous Version | Graphics & Text | Print | Product List | Glossary Off
Versions: 1 2 3 4 5 6 7 8 9 10 11 12 13 14 15 16 17 18 19 20 21 22 23 24 25 26 27 28 29 30 31 32 33 34 35 36 37 38 39 40 41 42 43

000
ASUS43 KDMX 021107
RWRIA

WEATHER ROUNDUP FOR IOWA
NATIONAL WEATHER SERVICE DES MOINES IA
600 AM CDT THU OCT 02 2014

NOTE: "FAIR" INDICATES FEW OR NO CLOUDS BELOW 12,000 FEET WITH NO
SIGNIFICANT WEATHER AND/OR OBSTRUCTIONS TO VISIBILITY.

* - THESE STATIONS ARE NOT NWS STATIONS...THUS NOT UNDER NWS
QUALITY CONTROL.  THEY ALSO DO NOT REPORT WEATHER SUCH
AS PRECIPITATION OR FOG.

IAZ001>003-012>014-020>022-031>034-043>046-021200-
   NORTHWEST IOWA

CITY           SKY/WX    TMP DP  RH WIND       PRES   REMARKS
CARROLL *      FOG       61  61 100 CALM      29.78F VSB 0
CHEROKEE *     FOG       59  59 100 N3        29.80R VSB 1
DENISON *      FOG       63  63 100 E5        29.78R VSB 1/4
LE MARS *      CLOUDY    55  54  94 N5        29.82R
ORANGE CITY *  PTCLDY    57  48  72 N8        29.81S
SHELDON *      CLOUDY    57  50  77 N9        29.81S
SIOUX CITY     LGT RAIN  57  54  89 NW13G24   29.84R
SPENCER        CLOUDY    58  56  93 N9        29.80F
STORM LAKE *   FOG       59  59 100 CALM      29.80R VSB 0
$$

IAZ055>058-069>071-079>083-090>094-021200-
   SOUTHWEST IOWA

CITY           SKY/WX    TMP DP  RH WIND       PRES   REMARKS
ATLANTIC *     FOG       63  63 100 E5        29.77R VSB 1/4
AUDUBON *      HAZE      61  55  82 NE3       29.79S VSB 1/4
CLARINDA *     CLOUDY    64  64 100 E6        29.77S FOG
COUNCIL BLFS * FOG       63  63 100 NW6       29.79R VSB 0
CRESTON *      FOG       63  63 100 E7        29.78R VSB 1/4
HARLAN  *      FOG       63  63 100 CALM      29.82R VSB 0
LAMONI         CLOUDY    64  63  96 E6        29.77S FOG
RED OAK *      FOG       63  63 100 E7        29.77R VSB 1/4
SHENANDOAH *   CLOUDY    64  64 100 NE8       29.77R FOG
$$

IAZ047>049-059>061-072>074-084-021200-
   CENTRAL IOWA

CITY           SKY/WX    TMP DP  RH WIND       PRES   REMARKS
AMES           CLOUDY    63  63 100 E3        29.79R FOG
ANKENY *       CLOUDY    64  64 100 E6        29.79R FOG
CHARITON *     FOG       64  63  94 SE7       29.79S VSB 0
DES MOINES     FOG       65  63  93 SE8       29.79R VSB 3/4
GRINNELL*      CLOUDY    63  63 100 SE6       29.81R FOG
KNOXVILLE *    FOG       63  63 100 SE6       29.78S VSB 1/4
MARSHALLTOWN   FOG       63  63 100 SE6       29.80R VSB 1/4
PELLA *        CLOUDY    64  64 100 SE6       29.81S FOG
PERRY *        FOG       63  61  94 CALM      29.79S VSB<1/4
$$

IAZ004>006-015-016-023>025-035-036-021200-
   NORTH CENTRAL IOWA

CITY           SKY/WX    TMP DP  RH WIND       PRES   REMARKS
ALGONA *       FOG       59  59 100 N3        29.82R VSB 1/4
CLARION *      CLOUDY    61  61 100 SE5       29.81R
ESTHERVILLE    FOG       55  55 100 N6        29.82R VSB 1/4
FORT DODGE *   CLOUDY    61  57  88 SE6       29.81S VSB<1/4
MASON CITY     FOG       56  56 100 N5        29.83S VSB 1/4
FOREST CITY *  FOG       57  57 100 CALM      29.82R VSB 1/4
IOWA FALLS *   FOG       63  61  94 CALM      29.82R VSB 1/2
$$

IAZ007>011-017>019-026>030-037>042-050>054-066-021200-
   NORTHEAST IOWA

CITY           SKY/WX    TMP DP  RH WIND       PRES   REMARKS
CEDAR RAPIDS   CLOUDY    64  64 100 SE5       29.81R FOG
CHARLES CITY * CLOUDY    61  61 100 CALM      29.83S FOG
CLINTON *      CLOUDY    64  61  88 S5        29.85R
DECORAH *      CLOUDY    61  61 100 CALM      29.83R FOG
MONTICELLO *   CLOUDY    63  63 100 CALM      29.81S FOG
OELWEIN *      FOG       59  59 100 CALM      29.83R VSB 0
WATERLOO       CLOUDY    62  61  96 N5        29.81R FOG
$$

IAZ064-065-067-068-078-021200-
   EAST CENTRAL IOWA

CITY           SKY/WX    TMP DP  RH WIND       PRES   REMARKS
IOWA CITY      CLOUDY    64  63  96 SE5       29.83R FOG
MT. PLEASANT * FOG       63  61  94 CALM      29.82R VSB 3/4
MUSCATINE *    PTCLDY    61  61 100 CALM      29.83R FOG
QUAD CITIES    CLOUDY    63  61  93 CALM      29.83R FOG
$$

IAZ062-063-075>077-085>089-095>099-021200-
   SOUTHEAST IOWA

CITY           SKY/WX    TMP DP  RH WIND       PRES   REMARKS
BURLINGTON     FOG       63  62  97 N3        29.82R VSB 1/4
FAIRFIELD *    CLOUDY   N/A N/A N/A CALM      29.82R
FORT MADISON * FOG       63  63 100 CALM      29.83S VSB 1/4
KEOKUK *       FOG       63  63 100 CALM      29.80F VSB 1/4
OSKALOOSA *    FOG       63  63 100 SE7       29.81R VSB 1/2
CENTERVILLE *  CLOUDY    64  64 100 E6        29.81F FOG
OTTUMWA        FOG       62  62 100 SE6       29.80R VSB 1/4
WASHINGTON *   CLOUDY    63  63 100 SE5       29.82R FOG
$$

ABBREVIATIONS USED IN REMARKS
   TC - TEMPERATURES IN CELSIUS
  WCI - WIND CHILL INDEX
   HX - HEAT INDEX
  VSB - VISIBILITY
$$



USA.gov is the U.S. government's official web portal to all federal, state and local government web resources and services.